Time,TemperatureF,DewpointF,PressureIn,WindDirection,WindDirectionDegrees,WindSpeedMPH,WindSpeedGustMPH,Humidity,HourlyPrecipIn,Conditions,Clouds,dailyrainin,SoftwareType,DateUTC
2013-10-14 00:00:00,57.1,55.7,30.25,WSW,257,0.0,2.0,95,0.00,,OVC024,0.11,VWS V13.01,2013-10-14 04:00:00,
2013-10-14 00:01:00,57.1,55.7,30.25,WSW,257,0.0,2.0,95,0.00,,OVC030,0.11,VWS V13.01,2013-10-14 04:01:00,
2013-10-14 00:02:00,57.1,55.7,30.25,WSW,257,0.0,2.0,95,0.00,,OVC030,0.11,VWS V13.01,2013-10-14 04:02:00,
2013-10-14 00:03:00,57.1,55.7,30.25,WSW,257,0.0,0.0,95,0.00,,OVC030,0.00,VWS V13.01,2013-10-14 04:03:00,
2013-10-14 00:05:00,57.1,55.7,30.25,WSW,257,0.0,0.0,95,0.00,,OVC030,0.00,VWS V13.01,2013-10-14 04:05:00,
2013-10-14 00:10:00,57.0,55.6,30.25,WSW,257,0.0,0.0,95,0.00,,OVC030,0.00,VWS V13.01,2013-10-14 04:10:00,
2013-10-14 00:15:00,56.9,55.2,30.25,WSW,257,0.0,1.0,94,0.00,,OVC030,0.00,VWS V13.01,2013-10-14 04:15:00,
2013-10-14 00:20:00,56.8,55.1,30.25,WSW,257,0.0,1.0,94,0.00,,OVC030,0.00,VWS V13.01,2013-10-14 04:20:00,
2013-10-14 00:25:00,56.7,54.7,30.25,NE,52,1.0,4.0,93,0.00,,OVC030,0.00,VWS V13.01,2013-10-14 04:25:00,
2013-10-14 00:30:00,56.7,54.7,30.25,NNE,21,0.0,4.0,93,0.00,,OVC030,0.00,VWS V13.01,2013-10-14 04:30:00,
2013-10-14 00:35:00,56.8,54.5,30.25,NNW,342,0.0,3.0,92,0.00,,OVC030,0.00,VWS V13.01,2013-10-14 04:35:00,
2013-10-14 00:40:00,56.8,54.2,30.25,North,355,0.0,5.0,91,0.00,,OVC030,0.00,VWS V13.01,2013-10-14 04:40:00,
2013-10-14 00:45:00,56.9,54.3,30.25,North,355,0.0,5.0,91,0.00,,OVC030,0.00,VWS V13.01,2013-10-14 04:45:00,
2013-10-14 00:50:00,56.9,54.3,30.25,North,360,2.0,5.0,91,0.00,,OVC030,0.00,VWS V13.01,2013-10-14 04:50:00,
2013-10-14 00:55:00,56.9,54.3,30.25,North,360,0.0,5.0,91,0.00,,OVC030,0.00,VWS V13.01,2013-10-14 04:55:00,
2013-10-14 01:00:00,56.9,54.3,30.25,ENE,61,0.0,6.0,91,0.00,,OVC040,0.00,VWS V13.01,2013-10-14 05:00:00,
2013-10-14 01:05:00,56.9,54.3,30.25,West,275,0.0,4.0,91,0.00,,OVC040,0.00,VWS V13.01,2013-10-14 05:05:00,
2013-10-14 01:10:00,56.9,54.3,30.25,NE,53,0.0,4.0,91,0.00,,OVC040,0.00,VWS V13.01,2013-10-14 05:10:00,
2013-10-14 01:15:00,56.9,54.6,30.25,NE,53,0.0,4.0,92,0.00,,OVC040,0.00,VWS V13.01,2013-10-14 05:15:00,
2013-10-14 01:20:00,56.8,54.5,30.25,ENE,57,0.0,4.0,92,0.00,,OVC040,0.00,VWS V13.01,2013-10-14 05:20:00,
2013-10-14 01:25:00,56.9,54.6,30.25,NE,56,0.0,4.0,92,0.00,,OVC040,0.00,VWS V13.01,2013-10-14 05:25:00,
2013-10-14 01:30:00,56.9,54.6,30.25,ENE,57,0.0,4.0,92,0.00,,OVC040,0.00,VWS V13.01,2013-10-14 05:30:00,
2013-10-14 01:35:00,56.9,54.6,30.25,ENE,58,0.0,3.0,92,0.00,,OVC040,0.00,VWS V13.01,2013-10-14 05:35:00,
2013-10-14 01:40:00,56.9,54.3,30.25,North,360,0.0,3.0,91,0.00,,OVC040,0.00,VWS V13.01,2013-10-14 05:40:00,
2013-10-14 01:45:00,56.9,54.3,30.25,East,80,0.0,3.0,91,0.00,,OVC040,0.00,VWS V13.01,2013-10-14 05:45:00,
2013-10-14 01:50:00,56.9,54.3,30.25,ENE,61,0.0,4.0,91,0.00,,OVC040,0.00,VWS V13.01,2013-10-14 05:50:00,
2013-10-14 01:55:00,57.0,54.4,30.25,North,355,2.0,5.0,91,0.00,,OVC040,0.00,VWS V13.01,2013-10-14 05:55:00,
2013-10-14 02:01:00,57.0,54.4,30.25,ENE,60,0.0,8.0,91,0.00,,OVC044,0.00,VWS V13.01,2013-10-14 06:01:00,
2013-10-14 02:06:00,57.0,54.4,30.26,SE,126,0.0,3.0,91,0.00,,OVC044,0.00,VWS V13.01,2013-10-14 06:06:00,
2013-10-14 02:11:00,57.0,54.1,30.26,ENE,65,1.0,4.0,90,0.00,,OVC044,0.00,VWS V13.01,2013-10-14 06:11:00,
2013-10-14 02:16:00,57.0,54.1,30.26,NE,43,1.0,5.0,90,0.00,,OVC044,0.00,VWS V13.01,2013-10-14 06:16:00,
2013-10-14 02:21:00,57.0,54.1,30.26,NE,44,0.0,5.0,90,0.00,,OVC044,0.00,VWS V13.01,2013-10-14 06:21:00,
2013-10-14 02:26:00,57.0,54.1,30.26,NE,44,0.0,5.0,90,0.00,,OVC044,0.00,VWS V13.01,2013-10-14 06:26:00,
2013-10-14 02:31:00,57.0,53.8,30.26,ENE,74,0.0,1.0,89,0.00,,OVC044,0.00,VWS V13.01,2013-10-14 06:31:00,
2013-10-14 02:36:00,57.0,53.8,30.26,NE,34,0.0,1.0,89,0.00,,OVC044,0.00,VWS V13.01,2013-10-14 06:36:00,
2013-10-14 02:41:00,56.9,53.4,30.26,NNE,20,0.0,4.0,88,0.00,,OVC044,0.00,VWS V13.01,2013-10-14 06:41:00,
2013-10-14 02:46:00,56.9,53.4,30.26,North,5,3.0,5.0,88,0.00,,OVC044,0.00,VWS V13.01,2013-10-14 06:46:00,
2013-10-14 02:51:00,56.8,53.0,30.26,NNE,13,3.0,5.0,87,0.00,,OVC044,0.00,VWS V13.01,2013-10-14 06:51:00,
2013-10-14 02:56:00,56.8,52.7,30.26,NW,309,0.0,5.0,86,0.00,,OVC044,0.00,VWS V13.01,2013-10-14 06:56:00,
2013-10-14 03:01:00,56.8,52.3,30.27,SW,224,0.0,4.0,85,0.00,,OVC041,0.00,VWS V13.01,2013-10-14 07:01:00,
2013-10-14 03:06:00,56.8,52.0,30.27,NW,304,1.0,4.0,84,0.00,,OVC041,0.00,VWS V13.01,2013-10-14 07:06:00,
2013-10-14 03:11:00,56.8,52.0,30.26,NW,312,0.0,4.0,84,0.00,,OVC041,0.00,VWS V13.01,2013-10-14 07:11:00,
2013-10-14 03:16:00,56.8,52.0,30.26,East,92,0.0,4.0,84,0.00,,OVC041,0.00,VWS V13.01,2013-10-14 07:16:00,
2013-10-14 03:21:00,56.8,51.7,30.27,NW,310,0.0,4.0,83,0.00,,OVC041,0.00,VWS V13.01,2013-10-14 07:21:00,
2013-10-14 03:26:00,56.8,51.7,30.27,WNW,297,0.0,4.0,83,0.00,,OVC041,0.00,VWS V13.01,2013-10-14 07:26:00,
2013-10-14 03:31:00,56.7,51.3,30.27,NNW,336,0.0,0.0,82,0.00,,OVC041,0.00,VWS V13.01,2013-10-14 07:31:00,
2013-10-14 03:36:00,56.7,50.9,30.27,NW,323,0.0,3.0,81,0.00,,OVC041,0.00,VWS V13.01,2013-10-14 07:36:00,
2013-10-14 03:41:00,56.7,50.9,30.27,ENE,66,1.0,6.0,81,0.00,,OVC041,0.00,VWS V13.01,2013-10-14 07:41:00,
2013-10-14 03:46:00,56.7,50.6,30.27,North,349,4.0,10.0,80,0.00,,OVC041,0.00,VWS V13.01,2013-10-14 07:46:00,
2013-10-14 03:51:00,56.8,50.7,30.27,North,349,0.0,10.0,80,0.00,,OVC041,0.00,VWS V13.01,2013-10-14 07:51:00,
2013-10-14 03:56:00,56.8,50.7,30.27,NNW,335,0.0,10.0,80,0.00,,OVC041,0.00,VWS V13.01,2013-10-14 07:56:00,
2013-10-14 04:01:00,56.8,50.7,30.27,North,9,1.0,1.0,80,0.00,,OVC043,0.00,VWS V13.01,2013-10-14 08:01:00,
2013-10-14 04:06:00,56.8,50.7,30.27,NNW,347,3.0,7.0,80,0.00,,OVC043,0.00,VWS V13.01,2013-10-14 08:06:00,
2013-10-14 04:11:00,56.8,51.0,30.27,NE,46,0.0,7.0,81,0.00,,OVC043,0.00,VWS V13.01,2013-10-14 08:11:00,
2013-10-14 04:16:00,56.7,50.9,30.27,WNW,302,0.0,7.0,81,0.00,,OVC043,0.00,VWS V13.01,2013-10-14 08:16:00,
2013-10-14 04:21:00,56.7,50.9,30.27,NNW,346,2.0,7.0,81,0.00,,OVC043,0.00,VWS V13.01,2013-10-14 08:21:00,
2013-10-14 04:26:00,56.7,51.3,30.27,NE,56,2.0,7.0,82,0.00,,OVC043,0.00,VWS V13.01,2013-10-14 08:26:00,
2013-10-14 04:31:00,56.7,51.3,30.27,NE,53,0.0,2.0,82,0.00,,OVC043,0.00,VWS V13.01,2013-10-14 08:31:00,
2013-10-14 04:37:00,56.6,51.2,30.27,NE,55,0.0,6.0,82,0.00,,OVC043,0.00,VWS V13.01,2013-10-14 08:37:00,
2013-10-14 04:41:00,56.6,50.8,30.28,NE,50,0.0,6.0,81,0.00,,OVC043,0.00,VWS V13.01,2013-10-14 08:41:00,
2013-10-14 04:46:00,56.6,50.5,30.28,ENE,63,0.0,6.0,80,0.00,,OVC043,0.00,VWS V13.01,2013-10-14 08:46:00,
2013-10-14 04:52:00,56.5,50.4,30.28,WNW,291,0.0,6.0,80,0.00,,OVC043,0.00,VWS V13.01,2013-10-14 08:52:00,
2013-10-14 04:57:00,56.4,50.7,30.28,NE,55,0.0,6.0,81,0.00,,OVC043,0.00,VWS V13.01,2013-10-14 08:57:00,
2013-10-14 05:02:00,56.3,50.2,30.28,North,350,0.0,2.0,80,0.00,,OVC060,0.00,VWS V13.01,2013-10-14 09:02:00,
2013-10-14 05:06:00,56.3,50.2,30.28,East,90,0.0,13.0,80,0.00,,OVC060,0.00,VWS V13.01,2013-10-14 09:06:00,
2013-10-14 05:12:00,56.3,50.2,30.28,ESE,112,2.0,13.0,80,0.00,,OVC060,0.00,VWS V13.01,2013-10-14 09:12:00,
2013-10-14 05:17:00,56.3,50.2,30.28,NE,39,0.0,13.0,80,0.00,,OVC060,0.00,VWS V13.01,2013-10-14 09:17:00,
2013-10-14 05:22:00,56.3,50.2,30.28,ENE,60,0.0,13.0,80,0.00,,OVC060,0.00,VWS V13.01,2013-10-14 09:22:00,
2013-10-14 05:27:00,56.3,50.2,30.28,NE,48,0.0,13.0,80,0.00,,OVC060,0.00,VWS V13.01,2013-10-14 09:27:00,
2013-10-14 05:32:00,56.3,50.2,30.28,North,360,0.0,3.0,80,0.00,,OVC060,0.00,VWS V13.01,2013-10-14 09:32:00,
2013-10-14 05:37:00,56.3,50.2,30.28,East,79,0.0,5.0,80,0.00,,OVC060,0.00,VWS V13.01,2013-10-14 09:37:00,
2013-10-14 05:42:00,56.3,50.2,30.29,WSW,244,1.0,5.0,80,0.00,,OVC060,0.00,VWS V13.01,2013-10-14 09:42:00,
2013-10-14 05:47:00,56.3,49.9,30.28,NE,36,1.0,7.0,79,0.00,,OVC060,0.00,VWS V13.01,2013-10-14 09:47:00,
2013-10-14 05:52:00,56.3,49.9,30.28,North,355,0.0,7.0,79,0.00,,OVC060,0.00,VWS V13.01,2013-10-14 09:52:00,
2013-10-14 05:57:00,56.3,49.9,30.29,NNW,338,0.0,7.0,79,0.00,,OVC060,0.00,VWS V13.01,2013-10-14 09:57:00,
2013-10-14 06:02:00,56.2,49.4,30.29,NE,49,1.0,2.0,78,0.00,,OVC060,0.00,VWS V13.01,2013-10-14 10:02:00,
2013-10-14 06:07:00,56.2,49.4,30.29,East,88,2.0,5.0,78,0.00,,OVC060,0.00,VWS V13.01,2013-10-14 10:07:00,
2013-10-14 06:12:00,56.2,49.1,30.28,ENE,63,0.0,7.0,77,0.00,,OVC060,0.00,VWS V13.01,2013-10-14 10:12:00,
2013-10-14 06:17:00,56.2,49.4,30.29,NE,55,0.0,7.0,78,0.00,,OVC060,0.00,VWS V13.01,2013-10-14 10:17:00,
2013-10-14 06:22:00,56.1,49.3,30.29,NE,55,0.0,7.0,78,0.00,,OVC060,0.00,VWS V13.01,2013-10-14 10:22:00,
2013-10-14 06:27:00,56.1,49.3,30.29,NE,49,3.0,10.0,78,0.00,,OVC060,0.00,VWS V13.01,2013-10-14 10:27:00,
2013-10-14 06:32:00,56.1,49.0,30.29,NE,34,2.0,3.0,77,0.00,,OVC060,0.00,VWS V13.01,2013-10-14 10:32:00,
2013-10-14 06:37:00,56.0,48.9,30.29,NE,50,0.0,5.0,77,0.00,,OVC060,0.00,VWS V13.01,2013-10-14 10:37:00,
2013-10-14 06:42:00,56.0,49.2,30.29,ENE,76,0.0,5.0,78,0.00,,OVC060,0.00,VWS V13.01,2013-10-14 10:42:00,
2013-10-14 06:47:00,56.0,49.2,30.29,ENE,76,0.0,5.0,78,0.00,,OVC060,0.00,VWS V13.01,2013-10-14 10:47:00,
2013-10-14 06:52:00,55.9,49.5,30.29,NE,34,4.0,5.0,79,0.00,,OVC060,0.00,VWS V13.01,2013-10-14 10:52:00,
2013-10-14 06:57:00,55.8,49.7,30.29,NE,54,1.0,5.0,80,0.00,,OVC060,0.00,VWS V13.01,2013-10-14 10:57:00,
2013-10-14 07:02:00,55.7,49.6,30.29,SE,143,0.0,1.0,80,0.00,,OVC060,0.00,VWS V13.01,2013-10-14 11:02:00,
2013-10-14 07:07:00,55.7,50.0,30.30,NE,38,1.0,2.0,81,0.00,,OVC060,0.00,VWS V13.01,2013-10-14 11:07:00,
2013-10-14 07:12:00,55.5,50.1,30.30,NW,313,0.0,4.0,82,0.00,,OVC060,0.00,VWS V13.01,2013-10-14 11:12:00,
2013-10-14 07:17:00,55.3,49.9,30.30,NNW,338,0.0,5.0,82,0.00,,OVC060,0.00,VWS V13.01,2013-10-14 11:17:00,
2013-10-14 07:22:00,55.2,49.8,30.30,NE,55,2.0,5.0,82,0.00,,OVC060,0.00,VWS V13.01,2013-10-14 11:22:00,
2013-10-14 07:27:00,55.1,49.7,30.30,ENE,71,1.0,5.0,82,0.00,,OVC060,0.00,VWS V13.01,2013-10-14 11:27:00,
2013-10-14 07:32:00,55.0,49.6,30.30,ENE,71,0.0,2.0,82,0.00,,OVC060,0.00,VWS V13.01,2013-10-14 11:32:00,
2013-10-14 07:37:00,54.9,49.5,30.30,NE,49,0.0,4.0,82,0.00,,OVC060,0.00,VWS V13.01,2013-10-14 11:37:00,
2013-10-14 07:42:00,54.8,49.4,30.30,ENE,60,0.0,4.0,82,0.00,,OVC060,0.00,VWS V13.01,2013-10-14 11:42:00,
2013-10-14 07:47:00,54.8,49.4,30.30,ENE,59,0.0,4.0,82,0.00,,OVC060,0.00,VWS V13.01,2013-10-14 11:47:00,
2013-10-14 07:52:00,54.8,49.4,30.30,NNW,329,0.0,4.0,82,0.00,,OVC060,0.00,VWS V13.01,2013-10-14 11:52:00,
2013-10-14 07:57:00,54.8,49.4,30.30,East,88,0.0,4.0,82,0.00,,OVC060,0.00,VWS V13.01,2013-10-14 11:57:00,
2013-10-14 08:02:00,54.7,49.3,30.30,WNW,285,0.0,1.0,82,0.00,,CLR,0.00,VWS V13.01,2013-10-14 12:02:00,
2013-10-14 08:07:00,54.7,49.0,30.30,ENE,62,0.0,5.0,81,0.00,,CLR,0.00,VWS V13.01,2013-10-14 12:07:00,
2013-10-14 08:12:00,54.7,49.0,30.30,North,5,0.0,5.0,81,0.00,,CLR,0.00,VWS V13.01,2013-10-14 12:12:00,
2013-10-14 08:17:00,54.6,48.9,30.31,ENE,76,0.0,6.0,81,0.00,,CLR,0.00,VWS V13.01,2013-10-14 12:17:00,
2013-10-14 08:22:00,54.6,48.9,30.31,ENE,76,0.0,6.0,81,0.00,,CLR,0.00,VWS V13.01,2013-10-14 12:22:00,
2013-10-14 08:27:00,54.6,49.2,30.31,ENE,58,0.0,6.0,82,0.00,,CLR,0.00,VWS V13.01,2013-10-14 12:27:00,
2013-10-14 08:32:00,54.7,49.3,30.31,ENE,66,0.0,6.0,82,0.00,,CLR,0.00,VWS V13.01,2013-10-14 12:32:00,
2013-10-14 08:37:00,54.8,49.4,30.31,WNW,286,1.0,7.0,82,0.00,,CLR,0.00,VWS V13.01,2013-10-14 12:37:00,
2013-10-14 08:42:00,54.8,49.4,30.31,NNE,32,0.0,7.0,82,0.00,,CLR,0.00,VWS V13.01,2013-10-14 12:42:00,
2013-10-14 08:47:00,54.8,49.4,30.31,NE,40,3.0,7.0,82,0.00,,CLR,0.00,VWS V13.01,2013-10-14 12:47:00,
2013-10-14 08:52:00,55.0,49.6,30.31,NNE,12,0.0,7.0,82,0.00,,CLR,0.00,VWS V13.01,2013-10-14 12:52:00,
2013-10-14 08:57:00,55.2,49.8,30.31,ENE,63,2.0,7.0,82,0.00,,CLR,0.00,VWS V13.01,2013-10-14 12:57:00,
2013-10-14 09:02:00,55.5,50.1,30.31,NNE,28,0.0,1.0,82,0.00,,FEW060,0.00,VWS V13.01,2013-10-14 13:02:00,
2013-10-14 09:07:00,55.8,50.1,30.31,ENE,68,0.0,6.0,81,0.00,,FEW060,0.00,VWS V13.01,2013-10-14 13:07:00,
2013-10-14 09:12:00,55.9,49.8,30.31,ENE,71,3.0,9.0,80,0.00,,FEW060,0.00,VWS V13.01,2013-10-14 13:12:00,
2013-10-14 09:17:00,56.1,50.0,30.31,East,96,0.0,10.0,80,0.00,,FEW060,0.00,VWS V13.01,2013-10-14 13:17:00,
2013-10-14 09:22:00,56.2,49.8,30.31,ENE,67,0.0,10.0,79,0.00,,FEW060,0.00,VWS V13.01,2013-10-14 13:22:00,
2013-10-14 09:27:00,56.3,49.9,30.31,ENE,67,3.0,10.0,79,0.00,,FEW060,0.00,VWS V13.01,2013-10-14 13:27:00,
2013-10-14 09:32:00,56.5,50.1,30.31,North,355,0.0,1.0,79,0.00,,FEW060,0.00,VWS V13.01,2013-10-14 13:32:00,
2013-10-14 09:38:00,56.9,50.5,30.31,NNW,347,1.0,6.0,79,0.00,,FEW060,0.00,VWS V13.01,2013-10-14 13:38:00,
2013-10-14 09:42:00,57.3,50.5,30.31,NE,49,2.0,6.0,78,0.00,,FEW060,0.00,VWS V13.01,2013-10-14 13:42:00,
2013-10-14 09:47:00,57.4,50.3,30.31,ENE,60,2.0,6.0,77,0.00,,FEW060,0.00,VWS V13.01,2013-10-14 13:47:00,
2013-10-14 09:52:00,57.5,50.0,30.31,NE,40,6.0,6.0,76,0.00,,FEW060,0.00,VWS V13.01,2013-10-14 13:52:00,
2013-10-14 09:58:00,57.8,49.9,30.31,NE,49,4.0,7.0,75,0.00,,FEW060,0.00,VWS V13.01,2013-10-14 13:58:00,
2013-10-14 10:03:00,58.2,50.0,30.32,ENE,68,4.0,4.0,74,0.00,,CLR,0.00,VWS V13.01,2013-10-14 14:03:00,
2013-10-14 10:08:00,58.6,50.0,30.32,ENE,69,0.0,7.0,73,0.00,,CLR,0.00,VWS V13.01,2013-10-14 14:08:00,
2013-10-14 10:13:00,59.0,50.4,30.32,ENE,78,1.0,7.0,73,0.00,,CLR,0.00,VWS V13.01,2013-10-14 14:13:00,
2013-10-14 10:18:00,59.0,49.2,30.32,NE,37,2.0,10.0,70,0.00,,CLR,0.00,VWS V13.01,2013-10-14 14:18:00,
2013-10-14 10:23:00,59.0,49.6,30.32,West,281,1.0,10.0,71,0.00,,CLR,0.00,VWS V13.01,2013-10-14 14:23:00,
2013-10-14 10:28:00,59.2,49.0,30.32,ENE,61,1.0,10.0,69,0.00,,CLR,0.00,VWS V13.01,2013-10-14 14:28:00,
2013-10-14 10:33:00,59.4,49.6,30.32,ENE,62,2.0,5.0,70,0.00,,CLR,0.00,VWS V13.01,2013-10-14 14:33:00,
2013-10-14 10:38:00,59.7,49.5,30.32,NNE,21,0.0,6.0,69,0.00,,CLR,0.00,VWS V13.01,2013-10-14 14:38:00,
2013-10-14 10:43:00,59.9,49.7,30.32,East,88,4.0,6.0,69,0.00,,CLR,0.00,VWS V13.01,2013-10-14 14:43:00,
2013-10-14 10:48:00,59.9,49.3,30.32,ESE,103,2.0,7.0,68,0.00,,CLR,0.00,VWS V13.01,2013-10-14 14:48:00,
2013-10-14 10:53:00,59.9,49.3,30.32,North,355,3.0,10.0,68,0.00,,CLR,0.00,VWS V13.01,2013-10-14 14:53:00,
2013-10-14 10:58:00,60.1,49.5,30.31,ENE,64,3.0,10.0,68,0.00,,CLR,0.00,VWS V13.01,2013-10-14 14:58:00,
2013-10-14 11:03:00,59.9,49.3,30.31,NE,55,7.0,10.0,68,0.00,,CLR,0.00,VWS V13.01,2013-10-14 15:03:00,
2013-10-14 11:08:00,59.8,48.8,30.31,ENE,57,3.0,10.0,67,0.00,,CLR,0.00,VWS V13.01,2013-10-14 15:08:00,
2013-10-14 11:13:00,60.0,49.4,30.31,NE,46,3.0,10.0,68,0.00,,CLR,0.00,VWS V13.01,2013-10-14 15:13:00,
2013-10-14 11:18:00,60.1,49.5,30.31,ENE,63,1.0,10.0,68,0.00,,CLR,0.00,VWS V13.01,2013-10-14 15:18:00,
2013-10-14 11:23:00,60.4,50.2,30.31,North,349,0.0,10.0,69,0.00,,CLR,0.00,VWS V13.01,2013-10-14 15:23:00,
2013-10-14 11:28:00,60.9,50.3,30.31,ENE,78,2.0,10.0,68,0.00,,CLR,0.00,VWS V13.01,2013-10-14 15:28:00,
2013-10-14 11:33:00,60.9,50.3,30.31,North,350,0.0,7.0,68,0.00,,CLR,0.00,VWS V13.01,2013-10-14 15:33:00,
2013-10-14 11:38:00,60.8,49.4,30.31,North,9,0.0,7.0,66,0.00,,CLR,0.00,VWS V13.01,2013-10-14 15:38:00,
2013-10-14 11:43:00,60.4,49.0,30.31,West,271,0.0,7.0,66,0.00,,CLR,0.00,VWS V13.01,2013-10-14 15:43:00,
2013-10-14 11:48:00,60.2,49.2,30.31,ENE,69,0.0,7.0,67,0.00,,CLR,0.00,VWS V13.01,2013-10-14 15:48:00,
2013-10-14 11:53:00,60.1,49.1,30.31,North,355,0.0,7.0,67,0.00,,CLR,0.00,VWS V13.01,2013-10-14 15:53:00,
2013-10-14 11:58:00,60.0,49.0,30.30,NE,53,3.0,7.0,67,0.00,,CLR,0.00,VWS V13.01,2013-10-14 15:58:00,
2013-10-14 12:03:00,59.8,48.4,30.30,East,93,3.0,5.0,66,0.00,,CLR,0.00,VWS V13.01,2013-10-14 16:03:00,
2013-10-14 12:08:00,59.5,48.2,30.30,NW,317,1.0,6.0,66,0.00,,CLR,0.00,VWS V13.01,2013-10-14 16:08:00,
2013-10-14 12:13:00,59.1,47.8,30.30,East,84,2.0,6.0,66,0.00,,CLR,0.00,VWS V13.01,2013-10-14 16:13:00,
2013-10-14 12:18:00,59.0,47.3,30.30,SW,231,3.0,14.0,65,0.00,,CLR,0.00,VWS V13.01,2013-10-14 16:18:00,
2013-10-14 12:23:00,59.0,48.1,30.30,North,360,7.0,14.0,67,0.00,,CLR,0.00,VWS V13.01,2013-10-14 16:23:00,
2013-10-14 12:28:00,58.9,48.0,30.30,NNW,340,0.0,14.0,67,0.00,,CLR,0.00,VWS V13.01,2013-10-14 16:28:00,
2013-10-14 12:33:00,58.7,48.2,30.30,West,266,2.0,3.0,68,0.00,,CLR,0.00,VWS V13.01,2013-10-14 16:33:00,
2013-10-14 12:38:00,59.0,47.7,30.30,ENE,68,3.0,7.0,66,0.00,,CLR,0.00,VWS V13.01,2013-10-14 16:38:00,
2013-10-14 12:43:00,59.0,48.1,30.29,ENE,73,4.0,7.0,67,0.00,,CLR,0.00,VWS V13.01,2013-10-14 16:43:00,
2013-10-14 12:48:00,59.0,47.7,30.29,NNE,17,2.0,10.0,66,0.00,,CLR,0.00,VWS V13.01,2013-10-14 16:48:00,
2013-10-14 12:53:00,59.0,47.3,30.29,North,360,2.0,10.0,65,0.00,,CLR,0.00,VWS V13.01,2013-10-14 16:53:00,
2013-10-14 12:58:00,58.7,46.6,30.29,NNW,340,0.0,10.0,64,0.00,,CLR,0.00,VWS V13.01,2013-10-14 16:58:00,
2013-10-14 13:03:00,58.5,47.6,30.28,West,267,4.0,5.0,67,0.00,,CLR,0.00,VWS V13.01,2013-10-14 17:03:00,
2013-10-14 13:08:00,58.4,47.1,30.28,ENE,59,1.0,5.0,66,0.00,,CLR,0.00,VWS V13.01,2013-10-14 17:08:00,
2013-10-14 13:13:00,58.4,47.9,30.28,West,267,1.0,6.0,68,0.00,,CLR,0.00,VWS V13.01,2013-10-14 17:13:00,
2013-10-14 13:19:00,58.6,48.5,30.28,West,278,0.0,7.0,69,0.00,,CLR,0.00,VWS V13.01,2013-10-14 17:19:00,
2013-10-14 13:24:00,58.6,48.1,30.28,North,355,5.0,7.0,68,0.00,,CLR,0.00,VWS V13.01,2013-10-14 17:24:00,
2013-10-14 13:29:00,58.7,48.6,30.27,East,89,0.0,7.0,69,0.00,,CLR,0.00,VWS V13.01,2013-10-14 17:29:00,
2013-10-14 13:34:00,58.8,48.7,30.27,North,355,5.0,7.0,69,0.00,,CLR,0.00,VWS V13.01,2013-10-14 17:34:00,
2013-10-14 13:39:00,58.7,49.0,30.27,North,350,0.0,7.0,70,0.00,,CLR,0.00,VWS V13.01,2013-10-14 17:39:00,
2013-10-14 13:44:00,58.7,48.6,30.27,NNW,331,0.0,7.0,69,0.00,,CLR,0.00,VWS V13.01,2013-10-14 17:44:00,
2013-10-14 13:49:00,58.6,48.5,30.27,WNW,292,0.0,9.0,69,0.00,,CLR,0.00,VWS V13.01,2013-10-14 17:49:00,
2013-10-14 13:54:00,58.4,48.3,30.27,WNW,288,1.0,9.0,69,0.00,,CLR,0.00,VWS V13.01,2013-10-14 17:54:00,
2013-10-14 13:59:00,58.2,48.5,30.27,NW,305,0.0,9.0,70,0.00,,CLR,0.00,VWS V13.01,2013-10-14 17:59:00,
2013-10-14 14:04:00,58.2,48.5,30.27,WNW,284,1.0,5.0,70,0.00,,CLR,0.00,VWS V13.01,2013-10-14 18:04:00,
2013-10-14 14:09:00,58.2,48.8,30.27,North,5,0.0,5.0,71,0.00,,CLR,0.00,VWS V13.01,2013-10-14 18:09:00,
2013-10-14 14:14:00,58.3,48.6,30.27,ENE,76,1.0,5.0,70,0.00,,CLR,0.00,VWS V13.01,2013-10-14 18:14:00,
2013-10-14 14:19:00,58.2,48.1,30.27,WNW,289,4.0,7.0,69,0.00,,CLR,0.00,VWS V13.01,2013-10-14 18:19:00,
2013-10-14 14:24:00,58.3,47.8,30.27,North,11,0.0,7.0,68,0.00,,CLR,0.00,VWS V13.01,2013-10-14 18:24:00,
2013-10-14 14:29:00,58.3,48.2,30.27,NNW,344,5.0,7.0,69,0.00,,CLR,0.00,VWS V13.01,2013-10-14 18:29:00,
2013-10-14 14:34:00,58.2,47.7,30.27,WSW,258,1.0,6.0,68,0.00,,CLR,0.00,VWS V13.01,2013-10-14 18:34:00,
2013-10-14 14:39:00,58.0,47.5,30.27,WNW,294,0.0,6.0,68,0.00,,CLR,0.00,VWS V13.01,2013-10-14 18:39:00,
2013-10-14 14:44:00,58.0,47.5,30.27,NW,304,2.0,6.0,68,0.00,,CLR,0.00,VWS V13.01,2013-10-14 18:44:00,
2013-10-14 14:49:00,58.0,47.5,30.27,North,360,0.0,6.0,68,0.00,,CLR,0.00,VWS V13.01,2013-10-14 18:49:00,
2013-10-14 14:54:00,58.0,48.3,30.27,NNW,335,0.0,6.0,70,0.00,,CLR,0.00,VWS V13.01,2013-10-14 18:54:00,
2013-10-14 14:59:00,58.1,46.8,30.27,NNW,343,0.0,9.0,66,0.00,,CLR,0.00,VWS V13.01,2013-10-14 18:59:00,
2013-10-14 15:04:00,58.1,47.6,30.26,WNW,289,0.0,4.0,68,0.00,,CLR,0.00,VWS V13.01,2013-10-14 19:04:00,
2013-10-14 15:09:00,58.0,47.1,30.26,North,360,4.0,4.0,67,0.00,,CLR,0.00,VWS V13.01,2013-10-14 19:09:00,
2013-10-14 15:14:00,58.1,47.6,30.26,West,274,1.0,6.0,68,0.00,,CLR,0.00,VWS V13.01,2013-10-14 19:14:00,
2013-10-14 15:19:00,58.1,47.2,30.26,NNW,344,5.0,6.0,67,0.00,,CLR,0.00,VWS V13.01,2013-10-14 19:19:00,
2013-10-14 15:24:00,58.1,46.8,30.26,NNW,327,0.0,7.0,66,0.00,,CLR,0.00,VWS V13.01,2013-10-14 19:24:00,
2013-10-14 15:29:00,58.1,46.4,30.26,WNW,289,0.0,7.0,65,0.00,,CLR,0.00,VWS V13.01,2013-10-14 19:29:00,
2013-10-14 15:34:00,58.1,46.8,30.26,NNW,333,1.0,7.0,66,0.00,,CLR,0.00,VWS V13.01,2013-10-14 19:34:00,
2013-10-14 15:39:00,58.1,46.4,30.26,NNE,19,3.0,7.0,65,0.00,,CLR,0.00,VWS V13.01,2013-10-14 19:39:00,
2013-10-14 15:44:00,58.0,46.7,30.25,North,5,0.0,9.0,66,0.00,,CLR,0.00,VWS V13.01,2013-10-14 19:44:00,
2013-10-14 15:49:00,58.1,46.8,30.25,NNW,342,0.0,9.0,66,0.00,,CLR,0.00,VWS V13.01,2013-10-14 19:49:00,
2013-10-14 15:54:00,58.2,46.5,30.25,North,349,0.0,9.0,65,0.00,,CLR,0.00,VWS V13.01,2013-10-14 19:54:00,
2013-10-14 15:59:00,58.2,46.5,30.25,WNW,289,0.0,9.0,65,0.00,,CLR,0.00,VWS V13.01,2013-10-14 19:59:00,
2013-10-14 16:04:00,58.6,47.3,30.25,West,281,0.0,3.0,66,0.00,,CLR,0.00,VWS V13.01,2013-10-14 20:04:00,
2013-10-14 16:09:00,59.0,47.3,30.25,WNW,282,1.0,4.0,65,0.00,,CLR,0.00,VWS V13.01,2013-10-14 20:09:00,
2013-10-14 16:14:00,59.0,46.4,30.25,North,355,1.0,5.0,63,0.00,,CLR,0.00,VWS V13.01,2013-10-14 20:14:00,
2013-10-14 16:19:00,59.3,47.1,30.25,North,360,1.0,5.0,64,0.00,,CLR,0.00,VWS V13.01,2013-10-14 20:19:00,
2013-10-14 16:24:00,59.1,46.5,30.25,North,355,1.0,5.0,63,0.00,,CLR,0.00,VWS V13.01,2013-10-14 20:24:00,
2013-10-14 16:29:00,59.0,46.4,30.25,North,350,3.0,5.0,63,0.00,,CLR,0.00,VWS V13.01,2013-10-14 20:29:00,
2013-10-14 16:34:00,58.6,46.5,30.25,North,351,2.0,3.0,64,0.00,,CLR,0.00,VWS V13.01,2013-10-14 20:34:00,
2013-10-14 16:39:00,58.3,46.6,30.25,NW,313,1.0,6.0,65,0.00,,CLR,0.00,VWS V13.01,2013-10-14 20:39:00,
2013-10-14 16:45:00,58.0,46.3,30.25,WNW,303,0.0,6.0,65,0.00,,CLR,0.00,VWS V13.01,2013-10-14 20:45:00,
2013-10-14 16:50:00,57.8,45.7,30.25,North,360,0.0,6.0,64,0.00,,CLR,0.00,VWS V13.01,2013-10-14 20:50:00,
2013-10-14 16:54:00,57.6,45.9,30.25,NNE,26,3.0,6.0,65,0.00,,CLR,0.00,VWS V13.01,2013-10-14 20:54:00,
2013-10-14 17:00:00,57.5,45.8,30.24,ESE,116,1.0,6.0,65,0.00,,CLR,0.00,VWS V13.01,2013-10-14 21:00:00,
2013-10-14 17:02:00,57.5,46.2,30.24,SE,128,0.0,1.0,66,0.00,,CLR,0.00,VWS V13.01,2013-10-14 21:02:00,
2013-10-14 17:07:00,57.4,46.2,30.25,SE,129,0.0,2.0,66,0.00,,CLR,0.00,VWS V13.01,2013-10-14 21:07:00,
2013-10-14 17:12:00,57.3,45.7,30.24,West,273,1.0,3.0,65,0.00,,CLR,0.00,VWS V13.01,2013-10-14 21:12:00,
2013-10-14 17:17:00,57.4,46.5,30.24,NE,44,0.0,3.0,67,0.00,,CLR,0.00,VWS V13.01,2013-10-14 21:17:00,
2013-10-14 17:22:00,57.4,46.5,30.24,NE,44,0.0,3.0,67,0.00,,CLR,0.00,VWS V13.01,2013-10-14 21:22:00,
2013-10-14 17:27:00,57.3,46.5,30.24,ENE,61,0.0,5.0,67,0.00,,CLR,0.00,VWS V13.01,2013-10-14 21:27:00,
2013-10-14 17:32:00,57.3,46.5,30.24,NE,34,2.0,5.0,67,0.00,,CLR,0.00,VWS V13.01,2013-10-14 21:32:00,
2013-10-14 17:37:00,57.2,46.4,30.24,NE,54,1.0,5.0,67,0.00,,CLR,0.00,VWS V13.01,2013-10-14 21:37:00,
2013-10-14 17:42:00,57.2,47.1,30.24,NE,54,1.0,5.0,69,0.00,,CLR,0.00,VWS V13.01,2013-10-14 21:42:00,
2013-10-14 17:47:00,57.1,47.0,30.25,NE,54,1.0,5.0,69,0.00,,CLR,0.00,VWS V13.01,2013-10-14 21:47:00,
2013-10-14 17:52:00,57.0,46.9,30.25,NE,54,1.0,5.0,69,0.00,,CLR,0.00,VWS V13.01,2013-10-14 21:52:00,
2013-10-14 17:57:00,56.9,47.2,30.25,NE,54,0.0,5.0,70,0.00,,CLR,0.00,VWS V13.01,2013-10-14 21:57:00,
2013-10-14 18:02:00,56.8,47.1,30.25,NE,54,0.0,1.0,70,0.00,,CLR,0.00,VWS V13.01,2013-10-14 22:02:00,
2013-10-14 18:07:00,56.6,47.3,30.25,NE,54,0.0,1.0,71,0.00,,CLR,0.00,VWS V13.01,2013-10-14 22:07:00,
2013-10-14 18:12:00,56.4,47.1,30.25,NE,54,0.0,2.0,71,0.00,,CLR,0.00,VWS V13.01,2013-10-14 22:12:00,
2013-10-14 18:17:00,56.2,47.3,30.25,NE,54,0.0,2.0,72,0.00,,CLR,0.00,VWS V13.01,2013-10-14 22:17:00,
2013-10-14 18:22:00,56.0,47.5,30.25,NE,54,0.0,2.0,73,0.00,,CLR,0.00,VWS V13.01,2013-10-14 22:22:00,
2013-10-14 18:27:00,55.7,47.2,30.25,NE,54,0.0,2.0,73,0.00,,CLR,0.00,VWS V13.01,2013-10-14 22:27:00,
2013-10-14 18:32:00,55.4,47.3,30.24,NE,54,0.0,0.0,74,0.00,,CLR,0.00,VWS V13.01,2013-10-14 22:32:00,
2013-10-14 18:38:00,55.1,47.3,30.24,NE,54,0.0,0.0,75,0.00,,CLR,0.00,VWS V13.01,2013-10-14 22:38:00,
2013-10-14 18:43:00,54.8,47.4,30.24,NE,54,0.0,0.0,76,0.00,,CLR,0.00,VWS V13.01,2013-10-14 22:43:00,
2013-10-14 18:48:00,54.3,47.2,30.25,NE,54,0.0,0.0,77,0.00,,CLR,0.00,VWS V13.01,2013-10-14 22:48:00,
2013-10-14 18:53:00,53.8,47.1,30.25,NE,54,0.0,0.0,78,0.00,,CLR,0.00,VWS V13.01,2013-10-14 22:53:00,
2013-10-14 18:58:00,53.3,46.6,30.25,NE,54,0.0,0.0,78,0.00,,CLR,0.00,VWS V13.01,2013-10-14 22:58:00,
2013-10-14 19:03:00,52.8,46.5,30.25,NE,54,0.0,0.0,79,0.00,,CLR,0.00,VWS V13.01,2013-10-14 23:03:00,
2013-10-14 19:08:00,52.4,46.1,30.25,NE,54,0.0,0.0,79,0.00,,CLR,0.00,VWS V13.01,2013-10-14 23:08:00,
2013-10-14 19:13:00,52.0,46.4,30.26,NE,54,0.0,0.0,81,0.00,,CLR,0.00,VWS V13.01,2013-10-14 23:13:00,
2013-10-14 19:18:00,51.6,46.3,30.26,NE,54,0.0,0.0,82,0.00,,CLR,0.00,VWS V13.01,2013-10-14 23:18:00,
2013-10-14 19:23:00,51.3,46.3,30.26,NE,54,0.0,0.0,83,0.00,,CLR,0.00,VWS V13.01,2013-10-14 23:23:00,
2013-10-14 19:28:00,51.0,46.3,30.26,NE,54,0.0,0.0,84,0.00,,CLR,0.00,VWS V13.01,2013-10-14 23:28:00,
2013-10-14 19:33:00,50.7,46.0,30.26,NE,54,0.0,0.0,84,0.00,,CLR,0.00,VWS V13.01,2013-10-14 23:33:00,
2013-10-14 19:38:00,50.5,46.2,30.26,NE,54,0.0,0.0,85,0.00,,CLR,0.00,VWS V13.01,2013-10-14 23:38:00,
2013-10-14 19:43:00,50.2,46.2,30.26,NE,54,0.0,0.0,86,0.00,,CLR,0.00,VWS V13.01,2013-10-14 23:43:00,
2013-10-14 19:48:00,50.0,46.0,30.26,NE,54,0.0,0.0,86,0.00,,CLR,0.00,VWS V13.01,2013-10-14 23:48:00,
2013-10-14 19:53:00,49.7,45.7,30.26,NE,54,0.0,0.0,86,0.00,,CLR,0.00,VWS V13.01,2013-10-14 23:53:00,
2013-10-14 19:58:00,49.5,45.8,30.25,NE,54,0.0,0.0,87,0.00,,CLR,0.00,VWS V13.01,2013-10-14 23:58:00,
2013-10-14 20:03:00,49.3,45.6,30.26,NE,54,0.0,0.0,87,0.00,,CLR,0.00,VWS V13.01,2013-10-15 00:03:00,
2013-10-14 20:08:00,49.1,45.7,30.26,NE,54,0.0,0.0,88,0.00,,CLR,0.00,VWS V13.01,2013-10-15 00:08:00,
2013-10-14 20:13:00,49.0,45.6,30.26,NE,54,0.0,0.0,88,0.00,,CLR,0.00,VWS V13.01,2013-10-15 00:13:00,
2013-10-14 20:18:00,48.8,45.4,30.26,NE,54,0.0,0.0,88,0.00,,CLR,0.00,VWS V13.01,2013-10-15 00:18:00,
2013-10-14 20:23:00,48.7,45.3,30.26,NE,54,0.0,0.0,88,0.00,,CLR,0.00,VWS V13.01,2013-10-15 00:23:00,
2013-10-14 20:28:00,48.7,45.6,30.26,NE,54,0.0,1.0,89,0.00,,CLR,0.00,VWS V13.01,2013-10-15 00:28:00,
2013-10-14 20:33:00,48.6,45.5,30.25,NE,54,0.0,0.0,89,0.00,,CLR,0.00,VWS V13.01,2013-10-15 00:33:00,
2013-10-14 20:38:00,48.5,45.4,30.25,NE,54,0.0,1.0,89,0.00,,CLR,0.00,VWS V13.01,2013-10-15 00:38:00,
2013-10-14 20:43:00,48.4,45.3,30.26,NE,54,0.0,1.0,89,0.00,,CLR,0.00,VWS V13.01,2013-10-15 00:43:00,
2013-10-14 20:48:00,48.3,45.5,30.26,NE,54,0.0,1.0,90,0.00,,CLR,0.00,VWS V13.01,2013-10-15 00:48:00,
2013-10-14 20:53:00,48.2,45.4,30.26,NE,54,0.0,1.0,90,0.00,,CLR,0.00,VWS V13.01,2013-10-15 00:53:00,
2013-10-14 20:58:00,48.1,45.3,30.26,NE,54,0.0,1.0,90,0.00,,CLR,0.00,VWS V13.01,2013-10-15 00:58:00,
2013-10-14 21:03:00,48.0,45.2,30.26,NE,54,0.0,0.0,90,0.00,,CLR,0.00,VWS V13.01,2013-10-15 01:03:00,
2013-10-14 21:08:00,47.9,45.1,30.26,NE,54,0.0,1.0,90,0.00,,CLR,0.00,VWS V13.01,2013-10-15 01:08:00,
2013-10-14 21:13:00,47.8,45.3,30.26,NE,54,0.0,1.0,91,0.00,,CLR,0.00,VWS V13.01,2013-10-15 01:13:00,
2013-10-14 21:18:00,47.7,45.2,30.26,NE,54,0.0,1.0,91,0.00,,CLR,0.00,VWS V13.01,2013-10-15 01:18:00,
2013-10-14 21:23:00,47.6,45.1,30.26,NE,54,0.0,1.0,91,0.00,,CLR,0.00,VWS V13.01,2013-10-15 01:23:00,
2013-10-14 21:28:00,47.6,45.1,30.26,NE,54,0.0,1.0,91,0.00,,CLR,0.00,VWS V13.01,2013-10-15 01:28:00,
2013-10-14 21:33:00,47.5,45.0,30.26,NE,54,0.0,0.0,91,0.00,,CLR,0.00,VWS V13.01,2013-10-15 01:33:00,
2013-10-14 21:38:00,47.5,45.0,30.26,NE,54,0.0,0.0,91,0.00,,CLR,0.00,VWS V13.01,2013-10-15 01:38:00,
2013-10-14 21:44:00,47.5,45.0,30.25,NE,54,0.0,1.0,91,0.00,,CLR,0.00,VWS V13.01,2013-10-15 01:44:00,
2013-10-14 21:49:00,47.5,45.0,30.25,NE,54,0.0,1.0,91,0.00,,CLR,0.00,VWS V13.01,2013-10-15 01:49:00,
2013-10-14 21:54:00,47.4,44.9,30.25,NE,54,0.0,1.0,91,0.00,,CLR,0.00,VWS V13.01,2013-10-15 01:54:00,
2013-10-14 21:59:00,47.4,44.9,30.25,NE,54,0.0,1.0,91,0.00,,CLR,0.00,VWS V13.01,2013-10-15 01:59:00,
2013-10-14 22:04:00,47.4,44.9,30.25,NE,54,0.0,0.0,91,0.00,,CLR,0.00,VWS V13.01,2013-10-15 02:04:00,
2013-10-14 22:09:00,47.5,45.0,30.25,NE,54,0.0,0.0,91,0.00,,CLR,0.00,VWS V13.01,2013-10-15 02:09:00,
2013-10-14 22:14:00,47.7,45.2,30.24,NE,54,0.0,0.0,91,0.00,,CLR,0.00,VWS V13.01,2013-10-15 02:14:00,
2013-10-14 22:19:00,48.1,45.3,30.24,NE,54,0.0,1.0,90,0.00,,CLR,0.00,VWS V13.01,2013-10-15 02:19:00,
2013-10-14 22:24:00,48.3,45.5,30.24,NE,54,0.0,1.0,90,0.00,,CLR,0.00,VWS V13.01,2013-10-15 02:24:00,
2013-10-14 22:29:00,48.5,45.4,30.24,NE,54,0.0,1.0,89,0.00,,CLR,0.00,VWS V13.01,2013-10-15 02:29:00,
2013-10-14 22:34:00,48.6,45.5,30.24,NE,54,0.0,0.0,89,0.00,,CLR,0.00,VWS V13.01,2013-10-15 02:34:00,
2013-10-14 22:39:00,48.7,45.6,30.25,NE,54,0.0,0.0,89,0.00,,CLR,0.00,VWS V13.01,2013-10-15 02:39:00,
2013-10-14 22:44:00,48.6,45.5,30.24,NE,54,0.0,0.0,89,0.00,,CLR,0.00,VWS V13.01,2013-10-15 02:44:00,
2013-10-14 22:49:00,48.5,45.4,30.24,NE,54,0.0,1.0,89,0.00,,CLR,0.00,VWS V13.01,2013-10-15 02:49:00,
2013-10-14 22:54:00,48.5,45.4,30.24,NE,54,0.0,1.0,89,0.00,,CLR,0.00,VWS V13.01,2013-10-15 02:54:00,
2013-10-14 22:59:00,48.4,45.3,30.24,NE,54,0.0,1.0,89,0.00,,CLR,0.00,VWS V13.01,2013-10-15 02:59:00,
2013-10-14 23:04:00,48.4,45.3,30.24,NE,54,0.0,0.0,89,0.00,,CLR,0.00,VWS V13.01,2013-10-15 03:04:00,
2013-10-14 23:09:00,48.4,45.3,30.24,NE,54,0.0,1.0,89,0.00,,CLR,0.00,VWS V13.01,2013-10-15 03:09:00,
2013-10-14 23:14:00,48.4,45.3,30.24,NE,54,0.0,1.0,89,0.00,,CLR,0.00,VWS V13.01,2013-10-15 03:14:00,
2013-10-14 23:19:00,48.4,45.3,30.24,NE,54,0.0,1.0,89,0.00,,CLR,0.00,VWS V13.01,2013-10-15 03:19:00,
2013-10-14 23:24:00,48.4,45.3,30.24,NE,54,0.0,1.0,89,0.00,,CLR,0.00,VWS V13.01,2013-10-15 03:24:00,
2013-10-14 23:29:00,48.3,45.2,30.24,NE,54,0.0,1.0,89,0.00,,CLR,0.00,VWS V13.01,2013-10-15 03:29:00,
2013-10-14 23:34:00,48.3,45.2,30.24,NE,54,0.0,0.0,89,0.00,,CLR,0.00,VWS V13.01,2013-10-15 03:34:00,
2013-10-14 23:39:00,48.3,44.9,30.24,NE,54,0.0,0.0,88,0.00,,CLR,0.00,VWS V13.01,2013-10-15 03:39:00,
2013-10-14 23:44:00,48.3,44.9,30.23,NE,54,0.0,0.0,88,0.00,,CLR,0.00,VWS V13.01,2013-10-15 03:44:00,
2013-10-14 23:49:00,48.3,44.9,30.23,NE,54,0.0,0.0,88,0.00,,CLR,0.00,VWS V13.01,2013-10-15 03:49:00,
2013-10-14 23:54:00,48.3,45.2,30.23,NE,54,0.0,0.0,89,0.00,,CLR,0.00,VWS V13.01,2013-10-15 03:54:00,
2013-10-14 23:59:00,48.3,45.2,30.23,NE,54,0.0,1.0,89,0.00,,CLR,0.00,VWS V13.01,2013-10-15 03:59:00,